Location: Newark
(49.8348°N, 24.0280°E)
Time: 01:56:45
(UTC+00:00)

Explorer 7 - Pass Details

Date: 26 January 2020
Orbit: 485 x 679 km, 50.3° (Epoch: 21 February)

Event Time Altitude Azimuth Distance (km) Brightness Sun altitude
Rises 22:43:26 0° 263° (W) 2,553 - -58.8°
Reaches altitude 10° 22:45:36 10° 264° (W) 1,668 - -58.8°
Maximum altitude 22:49:21 86° 351° (N) 493 - -58.7°
Drops below altitude 10° 22:53:10 10° 83° (E) 1,690 - -58.6°
Sets 22:55:23 0° 84° (E) 2,591 - -58.6°
